Regional Weather Roundup
Issued by NWS

Home | Current Version | Previous Version | Text Only | Print | Product List | Glossary On
Versions: 1 2 3 4 5 6 7 8 9 10 11 12 13 14 15 16 17 18 19 20 21 22 23 24 25 26 27 28 29 30 31 32 33 34 35 36 37 38 39 40 41 42 43 44 45 46 47 48 49 50
000
ASUS44 KBMX 192210
RWRAL

ALABAMA REGIONAL WEATHER ROUNDUP
NATIONAL WEATHER SERVICE BIRMINGHAM AL
400 PM CST FRI DEC 19 2014

NOTE: "FAIR" INDICATES FEW OR NO CLOUDS BELOW 12,000 FEET
WITH NO SIGNIFICANT WEATHER AND/OR OBSTRUCTIONS TO VISIBILITY.

THE REMARK "TC" DENOTES TEMPERATURE IN DEGREES CELSIUS.

ALZ001>011-014-016>018-020-192300-
NORTH ALABAMA

CITY           SKY/WX    TMP DP  RH WIND       PRES   REMARKS
MUSCLE SHOALS  CLOUDY    44  30  57 N5        30.21R
HUNTSVILLE     CLOUDY    44  32  62 N8        30.19R
DECATUR        CLOUDY    42  31  64 N9        30.20S
HALEYVILLE     FAIR      40  34  79 CALM      30.19F
GADSDEN        CLOUDY    46  32  57 N7        30.14S
$$

ALZ012-013-022-023-030>036-040>044-192300-
WEST CENTRAL ALABAMA

CITY           SKY/WX    TMP DP  RH WIND       PRES   REMARKS
TUSCALOOSA     LGT RAIN  47  38  71 N6        30.16S
$$

ALZ015-024>027-033>036-040>044-192300-
CENTRAL ALABAMA

CITY           SKY/WX    TMP DP  RH WIND       PRES   REMARKS
BIRMINGHAM     CLOUDY    45  36  70 N9        30.17R
MONTGOMERY     CLOUDY    52  37  56 W5        30.15R
SHELBY CO ARPT CLOUDY    49  36  61 N7        30.14R
MAXWELL AFB    CLOUDY    51  39  61 W3        30.14R
GREENVILLE     LGT RAIN  50  39  66 N5        30.10R
$$

ALZ019-021-028-029-037-038-045>048-192300-
EAST CENTRAL ALABAMA

CITY           SKY/WX    TMP DP  RH WIND       PRES   REMARKS
ANNISTON       CLOUDY    48  33  56 CALM      30.13R
ALEXANDER CITY CLOUDY    54  35  47 CALM      30.10R
AUBURN         CLOUDY    48  36  61 N3        30.11S
$$

ALZ051>064-192300-
SOUTHWEST ALABAMA

CITY           SKY/WX    TMP DP  RH WIND       PRES   REMARKS
MOBILE         RAIN      50  47  89 NE7       30.12R FOG
BROOKLEY FIELD RAIN      53  47  79 NE10      30.12R
EVERGREEN      LGT RAIN  52  44  74 NW5       30.14R
$$

ALZ049-050-065>069-192300-
SOUTHEAST ALABAMA

CITY           SKY/WX    TMP DP  RH WIND       PRES   REMARKS
DOTHAN         CLOUDY    57  37  47 E3        30.11S
OZARK          CLOUDY    57  37  46 N2        30.09R
TROY           CLOUDY    54  38  54 N5        30.11R
EUFAULA        FAIR      55  41  59 CALM      30.09R
$$



USA.gov is the U.S. government's official web portal to all federal, state and local government web resources and services.